Weather History for Rickenbacker, OH

Change the Weather History Date:

Sunday, March 17, 2013

  Actual Average Record
Temperature  
Mean Temperature 36 °F -  
Max Temperature 39 °F 49 °F 76 °F (2012)
Min Temperature 34 °F 31 °F 24 °F (2014)
Degree Days  
Heating Degree Days 28    
Moisture  
Dew Point 26 °F    
Average Humidity 66    
Maximum Humidity 77    
Minimum Humidity 53    
Precipitation  
Precipitation 0.00 in - - ()
Sea Level Pressure  
Sea Level Pressure 30.10 in    
Wind  
Wind Speed 8 mph (NE)    
Max Wind Speed 16 mph    
Max Gust Speed 22 mph    
Visibility 10 miles    
Events      
Averages and records for this station are not official NWS values.
T = Trace of Precipitation, MM = Missing Value Source: NWS Daily Summary

Daily Weather History Graph

Daily Weather History Graph

Search for Another Location

Airport:

Trip Planner

Search our weather history database for the weather conditions in past years. The results will help you decide how hot, cold, wet, or windy it might be!

Date:

Astronomy

Mar. 17, 2013 Rise Set
Actual Time 7:39 AM EDT 7:40 PM EDT
Civil Twilight 7:12 AM EDT 8:07 PM EDT
Nautical Twilight 6:41 AM EDT 8:39 PM EDT
Astronomical Twilight 6:09 AM EDT 9:11 PM EDT
Moon 10:52 AM EDT (3/17) 12:47 AM EDT (3/17)
Length of Visible Light 12h 55m
Length of Day
12h 01m
Waxing Crescent, 31% of the Moon is Illuminated
Mar 17
Waxing Crescent
Mar 19
First Quarter
Mar 27
Full
Apr 3
Last Quarter
Apr 10
New

Hourly Weather History & Observations

Time (EDT) Temp. Windchill Dew Point Humidity Pressure Visibility Wind Dir Wind Speed Gust Speed Precip Events Conditions
12:15 AM 34.7 °F 28.8 °F 28.2 °F 77% 30.03 in 10.0 mi North 6.9 mph - N/A   Overcast
12:35 AM 34.7 °F 29.6 °F 28.0 °F 77% 30.03 in 10.0 mi NNE 5.8 mph - N/A   Overcast
12:55 AM 34.7 °F 30.6 °F 28.2 °F 77% 30.03 in 10.0 mi North 4.6 mph - N/A   Overcast
1:15 AM 34.7 °F 28.8 °F 28.0 °F 77% 30.03 in 10.0 mi North 6.9 mph - N/A   Overcast
1:35 AM 34.3 °F 27.7 °F 27.7 °F 77% 30.03 in 10.0 mi NNE 8.1 mph - N/A   Overcast
1:55 AM 34.3 °F 30.2 °F 27.5 °F 76% 30.03 in 10.0 mi North 4.6 mph - N/A   Overcast
2:15 AM 34.3 °F 30.2 °F 27.1 °F 75% 30.04 in 10.0 mi North 4.6 mph - N/A   Overcast
2:35 AM 34.3 °F 28.4 °F 27.1 °F 75% 30.04 in 10.0 mi North 6.9 mph - N/A   Overcast
2:55 AM 34.2 °F 28.2 °F 27.3 °F 76% 30.03 in 10.0 mi North 6.9 mph - N/A   Overcast
3:15 AM 34.2 °F 27.5 °F 27.1 °F 75% 30.03 in 10.0 mi North 8.1 mph - N/A   Overcast
3:35 AM 34.3 °F 27.0 °F 27.3 °F 76% 30.05 in 10.0 mi North 9.2 mph - N/A   Overcast
3:55 AM 34.2 °F 26.2 °F 27.0 °F 75% 30.05 in 10.0 mi NNE 10.4 mph - N/A   Overcast
4:15 AM 34.0 °F 26.6 °F 26.8 °F 75% 30.04 in 10.0 mi NNE 9.2 mph - N/A   Overcast
4:35 AM 34.0 °F 26.6 °F 27.1 °F 76% 30.03 in 10.0 mi NNE 9.2 mph - N/A   Overcast
4:55 AM 34.0 °F 26.0 °F 26.6 °F 74% 30.03 in 10.0 mi North 10.4 mph - N/A   Overcast
5:15 AM 34.2 °F 25.2 °F 26.6 °F 74% 30.04 in 10.0 mi North 12.7 mph - N/A   Overcast
5:35 AM 34.2 °F 26.8 °F 26.8 °F 74% 30.05 in 10.0 mi NNE 9.2 mph - N/A   Overcast
5:55 AM 34.2 °F 27.5 °F 27.1 °F 75% 30.06 in 10.0 mi NNE 8.1 mph - N/A   Overcast
6:15 AM 34.2 °F 27.5 °F 27.3 °F 76% 30.06 in 10.0 mi NNE 8.1 mph - N/A   Overcast
6:35 AM 34.3 °F 28.4 °F 27.1 °F 75% 30.07 in 10.0 mi North 6.9 mph - N/A   Overcast
6:55 AM 34.5 °F 29.4 °F 26.8 °F 73% 30.10 in 10.0 mi NNE 5.8 mph - N/A   Overcast
7:15 AM 34.7 °F 31.8 °F 27.0 °F 73% 30.11 in 10.0 mi NE 3.5 mph - N/A   Overcast
7:35 AM 34.7 °F 30.6 °F 26.6 °F 72% 30.13 in 10.0 mi NE 4.6 mph - N/A   Overcast
7:55 AM 34.5 °F 29.4 °F 26.2 °F 72% 30.12 in 10.0 mi NE 5.8 mph - N/A   Overcast
8:15 AM 34.7 °F 29.6 °F 26.2 °F 71% 30.14 in 10.0 mi NNE 5.8 mph - N/A   Overcast
8:35 AM 34.9 °F 29.9 °F 26.4 °F 71% 30.14 in 10.0 mi North 5.8 mph - N/A   Overcast
8:55 AM 34.9 °F 29.9 °F 27.1 °F 73% 30.15 in 10.0 mi NE 5.8 mph - N/A   Overcast
9:15 AM 34.9 °F 29.0 °F 27.3 °F 74% 30.15 in 10.0 mi NE 6.9 mph - N/A   Overcast
9:35 AM 34.9 °F 29.9 °F 27.0 °F 73% 30.16 in 10.0 mi North 5.8 mph - N/A   Overcast
9:55 AM 34.9 °F 27.7 °F 26.1 °F 70% 30.16 in 10.0 mi North 9.2 mph - N/A   Overcast
10:15 AM 35.1 °F 27.9 °F 25.5 °F 68% 30.16 in 10.0 mi NNE 9.2 mph - N/A   Overcast
10:35 AM 35.1 °F 27.4 °F 24.8 °F 66% 30.16 in 10.0 mi NE 10.4 mph - N/A   Overcast
10:55 AM 35.1 °F 27.4 °F 24.6 °F 66% 30.15 in 10.0 mi NE 10.4 mph - N/A   Overcast
11:15 AM 35.2 °F 28.8 °F 25.0 °F 66% 30.15 in 10.0 mi ENE 8.1 mph - N/A   Overcast
11:35 AM 35.6 °F 27.5 °F 23.9 °F 62% 30.15 in 10.0 mi NE 11.5 mph - N/A   Overcast
11:55 AM 35.8 °F 28.3 °F 22.8 °F 59% 30.16 in 10.0 mi ENE 10.4 mph - N/A   Overcast
12:15 PM 36.1 °F 28.7 °F 23.2 °F 59% 30.16 in 10.0 mi ENE 10.4 mph - N/A   Overcast
12:35 PM 36.1 °F 28.2 °F 24.3 °F 62% 30.16 in 10.0 mi NE 11.5 mph - N/A   Overcast
12:55 PM 36.5 °F 30.3 °F 24.8 °F 63% 30.16 in 10.0 mi NE 8.1 mph - N/A   Overcast
1:15 PM 36.5 °F 28.7 °F 25.9 °F 65% 30.16 in 10.0 mi NE 11.5 mph - N/A   Overcast
1:35 PM 36.9 °F 29.6 °F 25.5 °F 64% 30.15 in 10.0 mi NE 10.4 mph - N/A   Overcast
1:55 PM 36.9 °F 29.6 °F 25.3 °F 63% 30.15 in 10.0 mi ENE 10.4 mph - N/A   Overcast
2:15 PM 36.9 °F 29.6 °F 25.5 °F 64% 30.14 in 10.0 mi East 10.4 mph - N/A   Overcast
2:35 PM 37.2 °F 30.0 °F 25.7 °F 63% 30.14 in 10.0 mi East 10.4 mph - N/A   Overcast
2:55 PM 37.9 °F 30.9 °F 25.7 °F 61% 30.13 in 10.0 mi East 10.4 mph - N/A   Overcast
3:15 PM 38.7 °F 32.4 °F 25.2 °F 58% 30.13 in 10.0 mi NE 9.2 mph - N/A   Overcast
3:35 PM 39.2 °F 33.0 °F 24.6 °F 56% 30.12 in 10.0 mi East 9.2 mph - N/A   Mostly Cloudy
3:55 PM 39.4 °F 33.8 °F 23.5 °F 53% 30.12 in 10.0 mi East 8.1 mph - N/A   Clear
4:15 PM 39.4 °F 33.2 °F 23.5 °F 53% 30.12 in 10.0 mi ENE 9.2 mph - N/A   Clear
4:35 PM 39.6 °F 32.5 °F 23.5 °F 53% 30.11 in 10.0 mi East 11.5 mph - N/A   Clear
4:55 PM 39.6 °F 34.0 °F 23.5 °F 53% 30.11 in 10.0 mi East 8.1 mph - N/A   Scattered Clouds
5:15 PM 39.7 °F 33.2 °F 23.7 °F 53% 30.11 in 10.0 mi ENE 10.4 mph - N/A   Scattered Clouds
5:35 PM 39.9 °F 33.9 °F 23.9 °F 53% 30.11 in 10.0 mi East 9.2 mph - N/A   Clear
5:55 PM 39.9 °F 34.5 °F 24.1 °F 53% 30.11 in 10.0 mi East 8.1 mph - N/A   Clear
6:15 PM 39.7 °F 32.7 °F 23.9 °F 53% 30.11 in 10.0 mi East 11.5 mph - N/A   Clear
6:35 PM 39.6 °F 32.1 °F 23.7 °F 53% 30.10 in 10.0 mi ENE 12.7 mph - N/A   Clear
6:55 PM 39.4 °F 32.7 °F 23.9 °F 54% 30.10 in 10.0 mi East 10.4 mph - N/A   Clear
7:15 PM 39.0 °F 32.8 °F 24.4 °F 56% 30.09 in 10.0 mi East 9.2 mph 17.3 mph N/A   Clear
7:35 PM 38.7 °F 31.8 °F 25.0 °F 58% 30.09 in 10.0 mi ENE 10.4 mph - N/A   Clear
7:55 PM 38.3 °F 31.4 °F 25.2 °F 59% 30.10 in 10.0 mi ENE 10.4 mph - N/A   Mostly Cloudy
8:15 PM 38.3 °F 31.9 °F 25.3 °F 60% 30.11 in 10.0 mi East 9.2 mph - N/A   Overcast
8:35 PM 38.3 °F 31.9 °F 25.3 °F 60% 30.11 in 10.0 mi ENE 9.2 mph - N/A   Overcast
8:55 PM 38.3 °F 31.4 °F 25.5 °F 60% 30.10 in 10.0 mi ENE 10.4 mph - N/A   Overcast
9:15 PM 38.1 °F 30.7 °F 25.7 °F 61% 30.10 in 10.0 mi East 11.5 mph 16.1 mph N/A   Overcast
9:35 PM 37.8 °F 29.8 °F 25.7 °F 62% 30.10 in 10.0 mi ENE 12.7 mph - N/A   Overcast
9:55 PM 37.4 °F 28.2 °F 25.5 °F 62% 30.09 in 10.0 mi ENE 16.1 mph - N/A   Overcast
10:15 PM 37.0 °F 28.9 °F 25.3 °F 63% 30.09 in 10.0 mi ENE 12.7 mph 18.4 mph N/A   Overcast
10:35 PM 36.7 °F 27.6 °F 25.3 °F 64% 30.08 in 10.0 mi ENE 15.0 mph - N/A   Overcast
10:55 PM 36.5 °F 28.2 °F 25.3 °F 64% 30.08 in 10.0 mi ENE 12.7 mph - N/A   Overcast
11:15 PM 36.3 °F 26.8 °F 25.2 °F 64% 30.07 in 10.0 mi East 16.1 mph 21.9 mph N/A   Overcast
11:35 PM 36.1 °F 28.7 °F 25.2 °F 64% 30.07 in 10.0 mi ENE 10.4 mph - N/A   Overcast
11:55 PM 36.3 °F 28.9 °F 25.3 °F 64% 30.07 in 10.0 mi East 10.4 mph - N/A   Overcast